STARLINK-2627 (48687 NORAD) Tracking and Keplerian Element Data

This shows tracking and keplerian element data for the satellite.

Feedback or suggestion? Click here.




ElementValue
Catalog48687
NameSTARLINK-2627
Epoch Orbit369
Epoch Day214.91667824
Epoch Year2021
RAAN85.9943
Inclination53.047
Eccentricity0.0002016
Argument of Perigee27.8249
Mean Anonmoly56.3987
Mean Motion15.73198595
Decay Rate4.2E-07
L11 48687U 21044BB 21214.91667824 .00000042 00000-0 47303-5 0 9995
L22 48687 53.0470 85.9943 0002016 27.8249 56.3987 15.73198595 3692

Live tracking and technical data element details for STARLINK-2627 (NORAD 48687). STARLINK-2627 can be tracked NOW for your location showing map with azimuth and elevation plus other details from your city location.

Track the satellite on the map from your city or location and see movement details for azimuth, elevation, latitude, longitude, range, height, and movement on the map or in text.







IsCatalogInMostPopularTable: catalog: 48687, numindb: 17
Update: records affected: 1



GetName: 48687 STARLINK-2627

Hit Count: updated at: Tue, 03 Aug 2021 22:37:51 GMT